Time,TemperatureF,DewpointF,PressureIn,WindDirection,WindDirectionDegrees,WindSpeedMPH,WindSpeedGustMPH,Humidity,HourlyPrecipIn,Conditions,Clouds,dailyrainin,SoftwareType,DateUTC
2013-12-23 00:23:00,31.0,-99.9,-100.00,West,280,2.0,-999.0,-999,-99.99,,,-99.99,,2013-12-23 05:23:00,
2013-12-23 00:43:00,31.0,-99.9,-100.00,SW,230,2.0,-999.0,-999,-99.99,,,-99.99,,2013-12-23 05:43:00,
2013-12-23 00:53:00,31.0,-99.9,-100.00,West,260,2.0,-999.0,-999,-99.99,,,-99.99,,2013-12-23 05:53:00,
2013-12-23 01:22:00,30.0,-99.9,-100.00,West,281,4.0,-999.0,-999,-99.99,,,-99.99,,2013-12-23 06:22:00,
2013-12-23 01:42:00,30.0,-99.9,-100.00,SW,232,2.0,-999.0,-999,-99.99,,,-99.99,,2013-12-23 06:42:00,
2013-12-23 01:53:00,30.0,-99.9,-100.00,WSW,252,0.0,-999.0,-999,-99.99,,,-99.99,,2013-12-23 06:53:00,
2013-12-23 02:23:00,30.0,-99.9,-100.00,West,274,4.0,-999.0,-999,-99.99,,,-99.99,,2013-12-23 07:23:00,
2013-12-23 02:42:00,29.0,-99.9,-100.00,West,281,3.0,-999.0,-999,-99.99,,,-99.99,,2013-12-23 07:42:00,
2013-12-23 02:52:00,29.0,-99.9,-100.00,WSW,248,4.0,-999.0,-999,-99.99,,,-99.99,,2013-12-23 07:52:00,
2013-12-23 03:22:00,29.0,-99.9,-100.00,SW,233,2.0,-999.0,-999,-99.99,,,-99.99,,2013-12-23 08:22:00,
2013-12-23 03:42:00,29.0,-99.9,-100.00,West,261,2.0,-999.0,-999,-99.99,,,-99.99,,2013-12-23 08:42:00,
2013-12-23 03:53:00,29.0,-99.9,-100.00,WSW,253,1.0,-999.0,-999,-99.99,,,-99.99,,2013-12-23 08:53:00,
2013-12-23 04:22:00,29.0,-99.9,-100.00,SW,229,4.0,-999.0,-999,-99.99,,,-99.99,,2013-12-23 09:22:00,
2013-12-23 04:43:00,29.0,-99.9,-100.00,SW,228,3.0,-999.0,-999,-99.99,,,-99.99,,2013-12-23 09:43:00,
2013-12-23 04:54:00,28.0,-99.9,-100.00,SW,224,1.0,-999.0,-999,-99.99,,,-99.99,,2013-12-23 09:54:00,
2013-12-23 05:23:00,28.0,-99.9,-100.00,WSW,251,2.0,-999.0,-999,-99.99,,,-99.99,,2013-12-23 10:23:00,
2013-12-23 05:53:00,28.0,-99.9,-100.00,West,270,6.0,-999.0,-999,-99.99,,,-99.99,,2013-12-23 10:53:00,
2013-12-23 06:22:00,27.0,-99.9,-100.00,West,270,1.0,-999.0,-999,-99.99,,,-99.99,,2013-12-23 11:22:00,
2013-12-23 06:42:00,28.0,-99.9,-100.00,West,279,5.0,-999.0,-999,-99.99,,,-99.99,,2013-12-23 11:42:00,
2013-12-23 06:53:00,28.0,-99.9,-100.00,West,265,2.0,-999.0,-999,-99.99,,,-99.99,,2013-12-23 11:53:00,
2013-12-23 07:22:00,28.0,-99.9,-100.00,WNW,294,4.0,-999.0,-999,-99.99,,,-99.99,,2013-12-23 12:22:00,
2013-12-23 07:42:00,28.0,-99.9,-100.00,WNW,288,2.0,-999.0,-999,-99.99,,,-99.99,,2013-12-23 12:42:00,
2013-12-23 07:52:00,28.0,-99.9,-100.00,West,264,1.0,-999.0,-999,-99.99,,,-99.99,,2013-12-23 12:52:00,
2013-12-23 08:22:00,27.0,-99.9,-100.00,West,277,6.0,-999.0,-999,-99.99,,,-99.99,,2013-12-23 13:22:00,
2013-12-23 08:42:00,27.0,-99.9,-100.00,WSW,258,9.0,-999.0,-999,-99.99,,,-99.99,,2013-12-23 13:42:00,
2013-12-23 08:52:00,27.0,-99.9,-100.00,WSW,253,5.0,-999.0,-999,-99.99,,,-99.99,,2013-12-23 13:52:00,
2013-12-23 09:22:00,26.0,-99.9,-100.00,West,275,6.0,-999.0,-999,-99.99,,,-99.99,,2013-12-23 14:22:00,
2013-12-23 09:42:00,26.0,-99.9,-100.00,WSW,258,6.0,-999.0,-999,-99.99,,,-99.99,,2013-12-23 14:42:00,
2013-12-23 09:52:00,26.0,-99.9,-100.00,WSW,251,5.0,-999.0,-999,-99.99,,,-99.99,,2013-12-23 14:52:00,
2013-12-23 10:22:00,27.0,-99.9,-100.00,WSW,239,6.0,-999.0,-999,-99.99,,,-99.99,,2013-12-23 15:22:00,
2013-12-23 10:54:00,26.0,-99.9,-100.00,WSW,238,5.0,-999.0,-999,-99.99,,,-99.99,,2013-12-23 15:54:00,
2013-12-23 11:13:00,26.0,-99.9,-100.00,SW,218,6.0,-999.0,-999,-99.99,,,-99.99,,2013-12-23 16:13:00,
2013-12-23 11:24:00,26.0,-99.9,-100.00,SW,219,3.0,-999.0,-999,-99.99,,,-99.99,,2013-12-23 16:24:00,
2013-12-23 11:43:00,25.0,-99.9,-100.00,SSW,205,6.0,-999.0,-999,-99.99,,,-99.99,,2013-12-23 16:43:00,
2013-12-23 11:53:00,25.0,-99.9,-100.00,SSW,205,6.0,-999.0,-999,-99.99,,,-99.99,,2013-12-23 16:53:00,
2013-12-23 12:01:00,24.0,-99.9,-100.00,SW,221,5.0,-999.0,-999,-99.99,,,-99.99,,2013-12-23 17:01:00,
2013-12-23 12:25:00,24.0,-99.9,-100.00,SW,221,5.0,-999.0,-999,-99.99,,,-99.99,,2013-12-23 17:25:00,
2013-12-23 12:33:00,24.0,-99.9,-100.00,SW,221,5.0,-999.0,-999,-99.99,,,-99.99,,2013-12-23 17:33:00,
2013-12-23 12:42:00,24.0,-99.9,-100.00,SW,221,5.0,-999.0,-999,-99.99,,,-99.99,,2013-12-23 17:42:00,
2013-12-23 12:53:00,24.0,-99.9,-100.00,SW,221,5.0,-999.0,-999,-99.99,,,-99.99,,2013-12-23 17:53:00,
2013-12-23 15:52:00,25.0,-99.9,-100.00,SW,232,2.0,-999.0,-999,-99.99,,,-99.99,,2013-12-23 20:52:00,
2013-12-23 16:22:00,24.0,-99.9,-100.00,WSW,239,1.0,-999.0,-999,-99.99,,,-99.99,,2013-12-23 21:22:00,
2013-12-23 16:43:00,24.0,-99.9,-100.00,SW,227,6.0,-999.0,-999,-99.99,,,-99.99,,2013-12-23 21:43:00,
2013-12-23 16:54:00,24.0,-99.9,-100.00,WSW,250,5.0,-999.0,-999,-99.99,,,-99.99,,2013-12-23 21:54:00,
2013-12-23 17:23:00,24.0,-99.9,-100.00,WSW,253,3.0,-999.0,-999,-99.99,,,-99.99,,2013-12-23 22:23:00,
2013-12-23 17:43:00,24.0,-99.9,-100.00,West,270,3.0,-999.0,-999,-99.99,,,-99.99,,2013-12-23 22:43:00,
2013-12-23 17:53:00,23.0,-99.9,-100.00,WSW,240,6.0,-999.0,-999,-99.99,,,-99.99,,2013-12-23 22:53:00,
2013-12-23 18:22:00,23.0,-99.9,-100.00,SW,230,2.0,-999.0,-999,-99.99,,,-99.99,,2013-12-23 23:22:00,
2013-12-23 18:54:00,23.0,-99.9,-100.00,WSW,256,2.0,-999.0,-999,-99.99,,,-99.99,,2013-12-23 23:54:00,
2013-12-23 19:22:00,22.0,-99.9,-100.00,West,271,3.0,-999.0,-999,-99.99,,,-99.99,,2013-12-24 00:22:00,
2013-12-23 19:42:00,21.0,-99.9,-100.00,West,264,6.0,-999.0,-999,-99.99,,,-99.99,,2013-12-24 00:42:00,
2013-12-23 19:52:00,21.0,-99.9,-100.00,WSW,249,4.0,-999.0,-999,-99.99,,,-99.99,,2013-12-24 00:52:00,
2013-12-23 20:22:00,19.0,-99.9,-100.00,West,271,2.0,-999.0,-999,-99.99,,,-99.99,,2013-12-24 01:22:00,
2013-12-23 20:42:00,19.0,-99.9,-100.00,WSW,254,3.0,-999.0,-999,-99.99,,,-99.99,,2013-12-24 01:42:00,
2013-12-23 20:52:00,18.0,-99.9,-100.00,SSW,200,3.0,-999.0,-999,-99.99,,,-99.99,,2013-12-24 01:52:00,
2013-12-23 21:22:00,17.0,-99.9,-100.00,West,272,7.0,-999.0,-999,-99.99,,,-99.99,,2013-12-24 02:22:00,
2013-12-23 21:52:00,16.0,-99.9,-100.00,WSW,254,10.0,-999.0,-999,-99.99,,,-99.99,,2013-12-24 02:52:00,
2013-12-23 22:22:00,15.0,-99.9,-100.00,SW,235,2.0,-999.0,-999,-99.99,,,-99.99,,2013-12-24 03:22:00,
2013-12-23 22:43:00,15.0,-99.9,-100.00,West,266,3.0,-999.0,-999,-99.99,,,-99.99,,2013-12-24 03:43:00,
2013-12-23 22:53:00,14.0,-99.9,-100.00,WSW,247,5.0,-999.0,-999,-99.99,,,-99.99,,2013-12-24 03:53:00,
2013-12-23 23:23:00,14.0,-99.9,-100.00,WSW,254,3.0,-999.0,-999,-99.99,,,-99.99,,2013-12-24 04:23:00,
2013-12-23 23:43:00,13.0,-99.9,-100.00,West,281,6.0,-999.0,-999,-99.99,,,-99.99,,2013-12-24 04:43:00,
2013-12-23 23:53:00,12.0,-99.9,-100.00,WSW,245,4.0,-999.0,-999,-99.99,,,-99.99,,2013-12-24 04:53:00,